User: anonymous   Login
Location: *
(2.5500°S, 65.9667°W)
Time: 18:28:29
(UTC+00:00)
Language:

Spot 2 - Orbit

View from above orbital plane
View from above orbital plane
View from above satellite
View from above satellite

Ground track
Ground track

The orbit data is extracted from the following two-line orbital elements,

1 20436U 90005A   22020.80287256  .00000354  00000-0  63969-4 0  9992
2 20436  98.7297  55.7200 0145414  78.5948 283.1548 14.66811044679039
Epoch (UTC): 20 January 2022 19:16:08
Eccentricity: 0.0145414
inclination: 98.7297°
perigee height: 569 km
apogee height: 774 km
right ascension of ascending node: 55.7200°
argument of perigee: 78.5948°
revolutions per day: 14.66811044
mean anomaly at epoch: 283.1548°
orbit number at epoch: 67903

The dashed part of the orbit path shows where the satellite is in the earth's shadow,  

DLR